User: anonymous   Login
Location: Ward Pound Ridge Reservation
(41.2500°N, 73.6000°W)
Time: 08:22:53
(UTC-04:00)
Language:

FO-29 - Orbit

View from above orbital plane
View from above orbital plane
View from above satellite
View from above satellite

Ground track
Ground track

The orbit data is extracted from the following two-line orbital elements,

1 24278U 96046B   19082.07498551 -.00000025  00000-0  71383-5 0  9992
2 24278  98.5237 247.4283 0351362 107.2405 256.7501 13.53089957115955
Epoch (UTC): 23 March 2019 01:47:58
Eccentricity: 0.0351362
inclination: 98.5237°
perigee height: 799 km
apogee height: 1322 km
right ascension of ascending node: 247.4283°
argument of perigee: 107.2405°
revolutions per day: 13.53089957
mean anomaly at epoch: 256.7501°
orbit number at epoch: 11595

The dashed part of the orbit path shows where the satellite is in the earth's shadow,  

DLR